轨道通信卫星FM20星 (ORBCOMM FM20)

导读

ORBCOMM FM 20是由ORB于1998年8月2日发射的低轨通信卫星,隶属于ORBCOMM低轨卫星通信星座系统。该卫星主要面向全球机器对机器(M2M)通信与物联网领域,为偏远地区、海上移动设备等提供低成本数据传输与追踪服务,支撑资产监控、物流跟踪与海事通信应用,是早期低轨卫星物联网通信探索的重要组成部分,服役至今已超过25年,见证了商业低轨卫星通信从起步到规模化发展的历程。

基本信息
目录编号:
25416
目录名称:
ORBCOMM FM 20
国际标识:
1998-046D
轨道中心:
EARTH
卫星名称:
轨道通信卫星FM20星
卫星全名:
轨道通信卫星FM20星 (ORBCOMM FM20)
卫星状态:
在轨 (已飞行10267 天)
发射日期:
1998-08-02 UTC
国别 :
(ORB)
星等 :
--
该卫星已列入 空间交会检测服务 Space Conjunction Data Service (SCDS) ,当前飞行风险评估等级: 无高风险
轨道信息
数据来源 国际轨道数据 AOE轨道数据
星历时间 2026-09-11T13:20:32+0800
8小时前
查看轨道信息
2026-09-10T23:00:00+0800
23小时前
查看轨道信息
半长轴 7142.701km 7142.701km
偏心率 0.0002484 0.0002421
轨道倾角 44.993° 44.992°
近地点辐角 330.728° 327.095°
升交点赤经 203.439° 206.275°
平近点角 29.343° 176.017°
近地点 762.789km 762.834km
远地点 766.339km 766.294km
周期 100.127分钟 100.128分钟
每日圈数 14.381664 14.381663
详细信息
固有亮度:
8
最大亮度:
6.9
平衡模式:
三轴稳定
覆盖范围:
全球
运营商:
轨道通信公司
运营商所在国:
美国
制造商(研发单位):
轨道ATK公司
制造商所在国:
美国
使用方式:
暂无
卫星简介
轨道通信FM(Orbcomm FM)是一系列低地球轨道通信卫星,由美国卫星通信公司 Orbcomm运营。 截至2015年12月,已有63颗此类卫星绕地球运行。该卫星仍在工作。
2D轨道图
3D轨道图
轨道高度分析图
轨道倾角分析图
轨道综合分析图
查看轨道综合分析图
与全量物体交会距离演化趋势
与全量物体交会风险概率演化趋势